Mountain Home, ID

8:43 PM MDT on May 22, 2017 (GMT -0600)
Mountain Home Air Force Base

Weather History for KMUO - April, 2012

Change the Weather History Date:

Tuesday, April 24, 2012

  Actual Average Record
Temperature  
Mean Temperature 69 °F 52 °F  
Max Temperature 84 °F 65 °F 94 °F (1977)
Min Temperature 53 °F 37 °F 20 °F (1950)
Degree Days  
Heating Degree Days 0 14  
Month to date heating degree days 307 399  
Cooling Degree Days 4 0  
Month to date cooling degree days 17 0  
Growing Degree Days 18 (Base 50)    
Moisture  
Dew Point 46 °F    
Average Humidity 50    
Maximum Humidity 82    
Minimum Humidity 19    
Precipitation  
Precipitation 0.02 in 0.03 in 0.59 in (2005)
Month to date precipitation 0.18 0.83  
Sea Level Pressure  
Sea Level Pressure 29.81 in    
Wind  
Wind Speed 10 mph (NNW)    
Max Wind Speed 29 mph    
Max Gust Speed 40 mph    
Visibility 10 miles    
Events Rain , Thunderstorm    
T = Trace of Precipitation, MM = Missing Value Source: NWS Daily Summary

Daily Weather History Graph

Daily Weather History Graph

Search for Another Location

Airport or City:

Trip Planner

Search our weather history database for the weather conditions in past years. The results will help you decide how hot, cold, wet, or windy it might be!

Date:

Astronomy

Apr. 24, 2012 Rise Set
Actual Time 6:46 AM MDT 8:37 PM MDT
Civil Twilight 6:16 AM MDT 9:07 PM MDT
Nautical Twilight 5:39 AM MDT 9:44 PM MDT
Astronomical Twilight 4:59 AM MDT 10:25 PM MDT
Moon 8:41 AM MDT (4/24) No Moon Set
Length of Visible Light 14h 51m
Length of Day
13h 50m
Waxing Crescent, 10% of the Moon is Illuminated
Apr 24
Waxing Crescent
Apr 29
First Quarter
May 5
Full
May 12
Last Quarter
May 20
New

Hourly Weather History & Observations

Time (MDT) Temp. Dew Point Humidity Pressure Visibility Wind Dir Wind Speed Gust Speed Precip Events Conditions
12:55 AM 64.0 °F 48.6 °F 57% 29.79 in 10.0 mi NNW 19.6 mph - N/A   Scattered Clouds
1:55 AM 61.9 °F 47.1 °F 58% 29.81 in 10.0 mi NW 12.7 mph - N/A   Partly Cloudy
2:55 AM 59.4 °F 48.2 °F 67% 29.80 in 10.0 mi WNW 9.2 mph - N/A   Scattered Clouds
3:55 AM 58.5 °F 47.7 °F 67% 29.80 in 10.0 mi West 9.2 mph - N/A   Mostly Cloudy
4:55 AM 56.7 °F 48.0 °F 73% 29.81 in 10.0 mi West 5.8 mph - N/A   Mostly Cloudy
5:55 AM 53.6 °F 48.2 °F 82% 29.82 in 10.0 mi WNW 5.8 mph - N/A   Mostly Cloudy
6:55 AM 53.8 °F 46.8 °F 77% 29.83 in 10.0 mi NNW 6.9 mph - N/A   Clear
7:55 AM 57.7 °F 49.1 °F 73% 29.85 in 10.0 mi NW 8.1 mph - N/A   Mostly Cloudy
8:55 AM 60.6 °F 47.8 °F 63% 29.87 in 10.0 mi West 6.9 mph - N/A   Overcast
9:55 AM 65.8 °F 48.2 °F 53% 29.87 in 5.0 mi Variable 5.8 mph - N/A   Haze
10:55 AM 69.6 °F 47.5 °F 45% 29.86 in 10.0 mi NNW 3.5 mph - N/A   Scattered Clouds
11:55 AM 75.0 °F 44.2 °F 33% 29.84 in 10.0 mi Calm Calm - N/A   Partly Cloudy
12:55 PM 78.4 °F 43.3 °F 29% 29.82 in 10.0 mi North 4.6 mph - N/A   Scattered Clouds
1:55 PM 81.1 °F 39.0 °F 22% 29.79 in 10.0 mi Calm Calm - N/A   Scattered Clouds
2:55 PM 82.2 °F 35.6 °F 19% 29.77 in 10.0 mi WNW 10.4 mph - N/A Rain Light Rain Showers
3:36 PM 80.6 °F 39.2 °F 23% 29.84 in 10.0 mi West 28.8 mph 40.3 mph N/A Thunderstorm Thunderstorm
3:55 PM 72.3 °F 50.7 °F 46% 29.80 in 10.0 mi NW 12.7 mph 17.3 mph 0.02 in   Mostly Cloudy
4:55 PM 75.4 °F 46.2 °F 35% 29.79 in 10.0 mi NW 12.7 mph 23.0 mph 0.00 in   Mostly Cloudy
5:55 PM 77.0 °F 44.2 °F 31% 29.76 in 10.0 mi NNE 9.2 mph - N/A   Clear
6:55 PM 77.4 °F 42.6 °F 29% 29.75 in 10.0 mi NNE 12.7 mph - N/A   Scattered Clouds
7:55 PM 75.7 °F 43.5 °F 32% 29.75 in 10.0 mi ENE 8.1 mph - N/A   Partly Cloudy
8:55 PM 66.9 °F 45.3 °F 46% 29.77 in 10.0 mi ESE 5.8 mph - N/A   Scattered Clouds
9:55 PM 64.9 °F 48.0 °F 54% 29.78 in 10.0 mi ESE 9.2 mph - N/A   Scattered Clouds
10:55 PM 59.7 °F 48.7 °F 67% 29.79 in 10.0 mi East 8.1 mph - N/A   Clear
11:55 PM 55.0 °F 48.7 °F 79% 29.80 in 10.0 mi Calm Calm - N/A   Clear